This demonstration page uses our WeatherBlox Daily Observations layout. Learn more.

Left ArrowRight Arrow

36.17497, -115.13722

Hourly Observations for October 30, 2021

Temp ( °F °C ) Dew Point ( °F °C ) Humidity (%) Winds ( mph kmh ) Pressure ( in mb ) Visibility ( mi km ) Precip ( " mm )
12:53 am 00:53 Clear 63 17.2 39 3.9 41 41 W 5 7 29.93 1014 10 16 N/A
1:53 am 01:53 Clear 60 15.6 39 3.9 46 46 W 3 6 29.93 1014 10 16 N/A
2:53 am 02:53 Clear 58 14.4 39 3.9 50 50 WNW 6 9 29.93 1014 10 16 N/A
3:53 am 03:53 Clear 58 14.4 38 3.3 48 48 WNW 3 6 29.92 1013 10 16 N/A
4:53 am 04:53 Clear 57 13.9 38 3.3 49 49 WNW 6 9 29.92 1013 10 16 N/A
5:53 am 05:53 Clear 53 11.7 38 3.3 57 57 NW 5 7 29.93 1014 10 16 N/A
6:53 am 06:53 Clear 56 13.3 38 3.3 51 51 WNW 6 9 29.94 1014 10 16 N/A
7:53 am 07:53 Sunny 59 15 38 3.3 46 46 N N/A 29.96 1014 10 16 N/A
8:53 am 08:53 Sunny 64 17.8 39 3.9 40 40 N N/A 29.97 1015 10 16 N/A
9:53 am 09:53 Sunny 69 20.6 39 3.9 33 33 N N/A 29.97 1015 10 16 N/A
10:53 am 10:53 Sunny 72 22.2 38 3.3 29 29 E 5 7 29.96 1015 10 16 N/A
11:53 am 11:53 Sunny 75 23.9 39 3.9 27 27 E 8 13 29.93 1014 10 16 N/A
12:53 pm 12:53 Sunny 77 25 38 3.3 24 24 SE 8 13 29.90 1013 10 16 N/A
1:53 pm 13:53 Sunny 78 25.6 38 3.3 24 24 SSE 7 11 29.88 1012 10 16 N/A
2:53 pm 14:53 Sunny 81 27.2 38 3.3 21 21 ESE 8 13 29.85 1011 10 16 N/A
3:53 pm 15:53 Sunny 82 27.8 38 3.3 21 21 ESE 8 13 29.84 1010 10 16 N/A
4:53 pm 16:53 Sunny 81 27.2 38 3.3 21 21 NE 9 15 29.83 1010 10 16 N/A
5:53 pm 17:53 Clear 79 26.1 38 3.3 23 23 N N/A 29.84 1011 10 16 N/A
6:53 pm 18:53 Clear 76 24.4 38 3.3 25 25 N 5 7 29.85 1011 10 16 N/A
7:53 pm 19:53 Clear 74 23.3 37 2.8 26 26 ENE 5 7 29.85 1011 10 16 N/A
8:53 pm 20:53 Clear 72 22.2 38 3.3 29 29 VRB 3 6 29.85 1011 10 16 N/A
9:53 pm 21:53 Clear 73 22.8 37 2.8 27 27 E 3 6 29.85 1011 10 16 N/A
10:53 pm 22:53 Clear 69 20.6 38 3.3 32 32 N 3 6 29.84 1011 10 16 N/A
11:53 pm 23:53 Clear 69 20.6 38 3.3 32 32 N N/A 29.84 1011 10 16 N/A

Powered by AerisWeather